JAS-2 (FO-29)

Last updated on Sun Aug 09 2026 00:03:15 GMT+0000 (Coordinated Universal Time)

1 24278U 96046B 26220.43337598 .00000002 00000+0 40156-4 0 9993 2 24278 98.5202 62.1436 0349166 321.0154 36.6277 13.53276557480230
UTC large
Height (km)
Speed (km/s)
/
Latitude / Longitude
Inclination (degrees)
Orbital Period (minutes)
Azimuth
Elevation
Range (km)
Doppler Factor

Next 0 passes for location: London (51.5072 / 0.1276)

No passes found over London.
JAS-2 (FO-29)